Ogallala, NE

9:37 AM MST on January 19, 2018 (GMT -0700)
Searle

Weather History for KOGA - April, 2013

Change the Weather History Date:

Friday, April 5, 2013

  Actual Average Record
Temperature  
Mean Temperature 58 °F -  
Max Temperature 79 °F 55 °F 82 °F (2006)
Min Temperature 39 °F 28 °F 13 °F (1968)
Degree Days  
Heating Degree Days 6    
Growing Degree Days 8 (Base 50)    
Moisture  
Dew Point 31 °F    
Average Humidity 38    
Maximum Humidity 74    
Minimum Humidity 15    
Precipitation  
Precipitation 0.00 in - - ()
Sea Level Pressure  
Sea Level Pressure 29.79 in    
Wind  
Wind Speed 8 mph (SW)    
Max Wind Speed 34 mph    
Max Gust Speed 48 mph    
Visibility 10 miles    
Events      
Averages and records for this station are not official NWS values.
T = Trace of Precipitation, MM = Missing Value Source: NWS Daily Summary

Daily Weather History Graph

Daily Weather History Graph

Search for Another Location

Airport or City:

Trip Planner

Search our weather history database for the weather conditions in past years. The results will help you decide how hot, cold, wet, or windy it might be!

Date:

Astronomy

Apr. 05, 2013 Rise Set
Actual Time 6:23 AM MDT 7:16 PM MDT
Civil Twilight 5:55 AM MDT 7:44 PM MDT
Nautical Twilight 5:22 AM MDT 8:18 PM MDT
Astronomical Twilight 4:47 AM MDT 8:52 PM MDT
Moon 3:34 AM MDT (4/5) 2:40 PM MDT (4/5)
Length of Visible Light 13h 49m
Length of Day
12h 53m
Waning Crescent, 23% of the Moon is Illuminated
Apr 5
Waning Crescent
Apr 10
New
Apr 18
First Quarter
Apr 25
Full
May 2
Last Quarter

Hourly Weather History & Observations

Time (MDT) Temp. Windchill Dew Point Humidity Pressure Visibility Wind Dir Wind Speed Gust Speed Precip Events Conditions
12:15 AM 48.4 °F - 32.0 °F 53% 30.01 in 10.0 mi South 10.4 mph - N/A   Clear
12:35 AM 48.2 °F - 32.0 °F 54% 30.00 in 10.0 mi SSE 12.7 mph 19.6 mph N/A   Clear
12:55 AM 47.7 °F - 32.0 °F 55% 29.99 in 10.0 mi South 12.7 mph 18.4 mph N/A   Clear
1:15 AM 46.8 °F - 32.0 °F 57% 29.98 in 10.0 mi South 11.5 mph 17.3 mph N/A   Clear
1:35 AM 45.9 °F 42.9 °F 32.0 °F 58% 29.98 in 10.0 mi South 5.8 mph - N/A   Clear
1:55 AM 45.7 °F 43.4 °F 32.0 °F 59% 29.98 in 10.0 mi NNW 4.6 mph - N/A   Clear
2:15 AM 47.3 °F - 31.8 °F 55% 29.97 in 10.0 mi South 10.4 mph - N/A   Clear
2:35 AM 45.9 °F 42.9 °F 31.8 °F 58% 29.96 in 10.0 mi SSW 5.8 mph 17.3 mph N/A   Clear
2:55 AM 46.4 °F - 31.8 °F 57% 29.95 in 10.0 mi Calm Calm - N/A   Clear
3:15 AM 45.1 °F 41.4 °F 32.0 °F 60% 29.95 in 10.0 mi SW 6.9 mph - N/A   Clear
3:35 AM 45.5 °F - 32.0 °F 59% 29.95 in 10.0 mi Calm Calm - N/A   Clear
3:55 AM 45.0 °F - 32.0 °F 60% 29.94 in 10.0 mi Calm Calm - N/A   Clear
4:15 AM 45.3 °F - 32.0 °F 60% 29.93 in 10.0 mi Calm Calm - N/A   Clear
4:35 AM 44.8 °F - 32.0 °F 61% 29.93 in 10.0 mi Calm Calm - N/A   Clear
4:55 AM 44.8 °F 43.3 °F 32.0 °F 61% 29.92 in 10.0 mi SSE 3.5 mph - N/A   Clear
5:15 AM 44.2 °F - 32.7 °F 64% 29.92 in 10.0 mi Calm Calm - N/A   Clear
5:35 AM 44.8 °F 43.3 °F 32.7 °F 63% 29.92 in 10.0 mi SE 3.5 mph - N/A   Clear
5:55 AM 43.7 °F - 32.2 °F 64% 29.92 in 10.0 mi Calm Calm - N/A   Clear
6:15 AM 43.0 °F 40.3 °F 32.4 °F 66% 29.91 in 10.0 mi SSE 4.6 mph - N/A   Clear
6:35 AM 41.2 °F - 32.0 °F 70% 29.91 in 10.0 mi Calm Calm - N/A   Clear
6:55 AM 39.2 °F - 31.6 °F 74% 29.91 in 10.0 mi Calm Calm - N/A   Clear
7:15 AM 40.1 °F 38.0 °F 32.0 °F 73% 29.91 in 10.0 mi WSW 3.5 mph - N/A   Clear
7:35 AM 43.2 °F 40.5 °F 33.1 °F 68% 29.91 in 10.0 mi WSW 4.6 mph - N/A   Clear
7:55 AM 45.3 °F - 33.4 °F 63% 29.90 in 10.0 mi Calm Calm - N/A   Clear
8:15 AM 49.3 °F - 33.6 °F 55% 29.89 in 10.0 mi WSW 3.5 mph - N/A   Clear
8:35 AM 53.6 °F - 33.8 °F 47% 29.88 in 10.0 mi SSW 5.8 mph - N/A   Clear
8:55 AM 58.8 °F - 30.7 °F 35% 29.86 in 10.0 mi SSW 13.8 mph 17.3 mph N/A   Clear
9:15 AM 59.0 °F - 30.4 °F 34% 29.86 in 10.0 mi SW 15.0 mph - N/A   Clear
9:35 AM 58.5 °F - 29.8 °F 34% 29.85 in 10.0 mi SSW 16.1 mph 20.7 mph N/A   Clear
9:55 AM 58.3 °F - 30.0 °F 34% 29.85 in 10.0 mi SW 9.2 mph - N/A   Clear
10:15 AM 59.2 °F - 30.7 °F 34% 29.84 in 10.0 mi SSW 9.2 mph - N/A   Clear
10:35 AM 60.8 °F - 30.9 °F 32% 29.83 in 10.0 mi SSW 9.2 mph - N/A   Clear
10:55 AM 63.1 °F - 31.3 °F 30% 29.82 in 10.0 mi SW 8.1 mph - N/A   Clear
11:15 AM 64.2 °F - 31.3 °F 29% 29.82 in 10.0 mi SSW 8.1 mph - N/A   Clear
11:35 AM 66.2 °F - 31.3 °F 27% 29.80 in 10.0 mi SSW 5.8 mph - N/A   Clear
11:55 AM 68.4 °F - 30.9 °F 25% 29.79 in 10.0 mi SSE 5.8 mph - N/A   Clear
12:15 PM 69.8 °F - 29.7 °F 22% 29.77 in 10.0 mi SSW 6.9 mph - N/A   Clear
12:35 PM 70.9 °F - 29.8 °F 22% 29.76 in 10.0 mi South 6.9 mph - N/A   Clear
12:55 PM 72.1 °F - 29.8 °F 21% 29.75 in 10.0 mi South 3.5 mph - N/A   Clear
1:15 PM 73.4 °F - 29.7 °F 20% 29.73 in 10.0 mi South 4.6 mph - N/A   Clear
1:35 PM 75.4 °F - 29.5 °F 18% 29.72 in 10.0 mi WSW 5.8 mph - N/A   Clear
1:55 PM 75.4 °F - 29.1 °F 18% 29.70 in 10.0 mi SE 3.5 mph - N/A   Clear
2:15 PM 75.7 °F - 28.0 °F 17% 29.69 in 10.0 mi South 8.1 mph - N/A   Clear
2:35 PM 78.1 °F - 27.5 °F 16% 29.68 in 10.0 mi SSE 8.1 mph - N/A   Clear
2:55 PM 78.6 °F - 27.0 °F 15% 29.66 in 10.0 mi South 4.6 mph - N/A   Clear
3:15 PM 78.6 °F - 26.6 °F 15% 29.66 in 10.0 mi SSW 10.4 mph - N/A   Clear
3:35 PM 78.8 °F - 26.6 °F 15% 29.65 in 10.0 mi SSE 11.5 mph - N/A   Clear
3:55 PM 77.2 °F - 25.9 °F 15% 29.65 in 10.0 mi South 8.1 mph - N/A   Mostly Cloudy
4:15 PM 76.1 °F - 26.1 °F 16% 29.65 in 10.0 mi South 6.9 mph 16.1 mph N/A   Overcast
4:35 PM 75.7 °F - 26.6 °F 16% 29.65 in 10.0 mi SSW 3.5 mph - N/A   Overcast
4:55 PM 77.2 °F - 25.5 °F 15% 29.65 in 10.0 mi West 18.4 mph 26.5 mph N/A   Overcast
5:15 PM 75.4 °F - 27.3 °F 17% 29.65 in 10.0 mi WNW 18.4 mph 31.1 mph N/A   Mostly Cloudy
5:35 PM 75.4 °F - 25.5 °F 16% 29.65 in 10.0 mi WSW 16.1 mph 21.9 mph N/A   Overcast
5:55 PM 75.0 °F - 25.9 °F 16% 29.64 in 10.0 mi West 12.7 mph 17.3 mph N/A   Scattered Clouds
6:15 PM 73.8 °F - 27.7 °F 18% 29.63 in 10.0 mi West 6.9 mph - N/A   Clear
6:35 PM 73.0 °F - 27.5 °F 18% 29.62 in 10.0 mi SW 3.5 mph - N/A   Clear
6:55 PM 70.3 °F - 28.8 °F 21% 29.62 in 10.0 mi Calm Calm - N/A   Clear
7:15 PM 69.6 °F - 28.9 °F 22% 29.62 in 10.0 mi Calm Calm - N/A   Clear
7:35 PM 65.8 °F - 28.9 °F 25% 29.62 in 10.0 mi West 3.5 mph - N/A   Clear
7:55 PM 61.5 °F - 29.8 °F 30% 29.62 in 10.0 mi SW 3.5 mph - N/A   Clear
8:15 PM 55.8 °F - 29.1 °F 36% 29.63 in 10.0 mi West 4.6 mph - N/A   Scattered Clouds
8:35 PM 63.7 °F - 31.8 °F 30% 29.66 in 10.0 mi WSW 20.7 mph 29.9 mph N/A   Overcast
8:55 PM 67.5 °F - 30.4 °F 25% 29.67 in 10.0 mi NW 11.5 mph 16.1 mph N/A   Mostly Cloudy
9:15 PM 68.2 °F - 32.0 °F 26% 29.67 in 10.0 mi WNW 12.7 mph - N/A   Scattered Clouds
9:35 PM 66.9 °F - 33.3 °F 29% 29.68 in 10.0 mi NNW 13.8 mph - N/A   Scattered Clouds
9:55 PM 65.3 °F - 34.0 °F 31% 29.67 in 10.0 mi NW 16.1 mph - N/A   Overcast
10:15 PM 66.4 °F - 32.4 °F 28% 29.67 in 10.0 mi WNW 13.8 mph - N/A   Mostly Cloudy
10:35 PM 65.7 °F - 32.2 °F 29% 29.68 in 10.0 mi WNW 17.3 mph - N/A   Scattered Clouds
10:55 PM 64.4 °F - 35.8 °F 35% 29.69 in 10.0 mi NW 26.5 mph 34.5 mph N/A   Mostly Cloudy
11:15 PM 61.9 °F - 37.0 °F 40% 29.70 in 10.0 mi NW 20.7 mph 28.8 mph N/A   Scattered Clouds
11:35 PM 62.4 °F - 33.3 °F 34% 29.71 in 10.0 mi WNW 34.5 mph 48.3 mph N/A   Clear
11:55 PM 61.0 °F - 34.9 °F 38% 29.72 in 10.0 mi WNW 31.1 mph 36.8 mph N/A   Clear